Regional Weather Roundup
Issued by NWS

Home | Current Version | Previous Version | Graphics & Text | Print | Product List | Glossary On
Versions: 1 2 3 4 5 6 7 8 9 10 11 12 13 14 15 16 17 18 19 20 21 22 23 24 25 26 27 28 29 30 31 32 33 34 35 36 37 38 39 40 41 42 43 44 45 46 47 48 49 50
000
ASUS43 KLOT 292208
RWRIL

ILLINOIS REGIONAL WEATHER ROUNDUP
NATIONAL WEATHER SERVICE CHICAGO/ROMEOVILLE IL
500 PM CDT SUN MAR 29 2015

NOTE: "FAIR" INDICATES FEW OR NO CLOUDS BELOW 12,000 FEET WITH NO
SIGNIFICANT WEATHER AND/OR OBSTRUCTIONS TO VISIBILITY.

* THESE STATIONS ARE NOT UNDER NWS QUALITY CONTROL. THEY ALSO MAY NOT
  REPORT WEATHER SUCH AS PRECIPITATION OR FOG.

ILZ001-002-007-009-015-016-024-292300-
NORTHWEST ILLINOIS

CITY           SKY/WX    TMP DP  RH WIND       PRES   REMARKS
MOLINE         CLOUDY    55  40  56 SW18      29.79S
STERLING*      CLOUDY    52  39  62 W12G18    29.77S
SAVANNA*       CLOUDY    54  41  63 W14G22    29.76R
$$

ILZ003-004-008-010-011-017-018-292300-
NORTH CENTRAL ILLINOIS

CITY           SKY/WX    TMP DP  RH WIND       PRES   REMARKS
ROCKFORD       CLOUDY    47  38  71 SW16      29.75F
FREEPORT*      CLOUDY    45  39  79 SW23      29.74F
ROCHELLE*      CLOUDY    46  39  78 S17       29.76F
DE KALB*       CLOUDY    43  36  76 SW18      29.77F
PERU*          PTSUNNY   52  37  55 SW23      29.81F
$$

ILZ005-006-012>014-019>023-292300-
NORTHEAST ILLINOIS

CITY           SKY/WX    TMP DP  RH WIND       PRES   REMARKS
CHICAGO-OHARE  MOSUNNY   45  33  63 SW18G30   29.76F
CHICAGO-MIDWAY PTSUNNY   46  34  62 SW23G29   29.80F
AURORA         CLOUDY    48  33  56 SW21G29   29.79F
LANSING*       CLOUDY    44  32  63 SW20G26   29.84S
JOLIET*        MOSUNNY   49  35  57 SW17G28   29.82F
WAUKEGAN       CLOUDY    42  33  70 SW21G32   29.72F
DUPAGE AIRPORT CLOUDY    46  35  65 SW21G31   29.78F
KANKAKEE*      MOSUNNY   46  37  71 SW18G26   29.86F
WHEELING       PTSUNNY   45  32  60 SW18G24   29.77F
MORRIS*        MOSUNNY   49  34  57 SW23      29.81F
ROMEOVILLE*    PTSUNNY   47  34  59 SW23      29.81F
NORTHERLY ISL    N/A     44  31  60 S9          N/A
$$

LMZ740>746-292300-
SOUTHERN LAKE MICHIGAN

STATION/POSITION SKY/WX   TEMP    WIND        PRES    VSBY  WAVE
                          AIR SEA DIR/SP/G                  HT/PER
                          (F)     (DEG/KT/KT) (MB)    (MI)  (FT/S)
HARRISON CRIB              40     210/ 27/ 35   N/A
BURNHAM HARBOR             45     200/ 10/ 20   N/A
CALUMET HARBOR             41     190/ 17/ 25 1008.8F
BURNS HARBOR               38     190/ 17     1010.8F
MICHIGAN CITY              37     170/ 20/ 26   N/A
$$

ILZ025>027-034>036-040-047-049-050-058-095>099-292300-
WEST-CENTRAL ILLINOIS

CITY           SKY/WX    TMP DP  RH WIND       PRES   REMARKS
QUINCY         PTSUNNY   58  39  49 W12G24    29.90F
GALESBURG*     CLOUDY    54  41  62 SW13G21   29.83F
MACOMB*        CLOUDY    56  41  58 SW18G25   29.88F
JACKSONVILLE*  PTSUNNY   58  39  49 SW17G24   29.91S
PITTSFIELD*    PTSUNNY   57  39  51 W16       29.93F
$$

ILZ028>032-037-038-041>044-048-051>054-059>061-292300-
CENTRAL ILLINOIS

CITY           SKY/WX    TMP DP  RH WIND       PRES   REMARKS
PONTIAC        PTSUNNY   50  37  59 SW17G29   29.86F
BLOOMINGTON    PTSUNNY   52  37  56 SW22G28   29.88F
DECATUR        CLOUDY    53  39  59 SW22G30   29.92F
PEORIA         PTSUNNY   57  37  47 SW18G24   29.86F
LACON*         PTSUNNY   53  35  50 SW17G23   29.82F
LINCOLN*       PTSUNNY   56  37  47 W12G18    29.89S
SPRINGFIELD    PTSUNNY   56  36  47 SW16G26   29.91S
TAYLORVILLE    PTSUNNY   52  41  66 SW14      29.92F
$$

ILZ033-039-045-046-055>057-062-063-292300-
EAST-CENTRAL ILLINOIS

CITY           SKY/WX    TMP DP  RH WIND       PRES   REMARKS
CHAMPAIGN      CLOUDY    47  40  76 SW13      29.91F
DANVILLE*      CLOUDY    43  35  74 SW20      29.89F
RANTOUL*       CLOUDY    51  38  62 SW17G24   29.90F
MATTOON        CLOUDY    49  37  63 SW13      29.93F
PARIS*         LGT RAIN  44  38  80 SW9       29.94F
$$

ILZ079-100>102-292300-
SOUTHWEST ILLINOIS

CITY           SKY/WX    TMP DP  RH WIND       PRES   REMARKS
ALTON          DRIZZLE   52  41  66 S7        29.95R
BELLEVILLE     LGT RAIN  56  45  66 S9        29.91F
CAHOKIA*       LGT RAIN  56  44  64 W7        29.93F
SPARTA*        CLOUDY    55  41  60 S9        29.99R
$$

ILZ064>066-069>071-074>076-080>082-084>086-088>090-092>094-292300-
SOUTH-CENTRAL ILLINOIS

CITY           SKY/WX    TMP DP  RH WIND       PRES   REMARKS
CARBONDALE     CLOUDY    55  40  56 SW23G30   30.02R
CAIRO*         MOSUNNY   57  44  62 S17G24    30.01S
EFFINGHAM*     RAIN      51  34  52 S8        29.94F
MARION         PTSUNNY   55  41  58 S18G25    30.01R
MT. VERNON     CLOUDY    55  39  54 SW16      30.00R
CENTRALIA*     CLOUDY    53  41  63 SW16G23   29.98S
SALEM*         CLOUDY    56  41  58 SW15G24   29.96F
METROPOLIS*    PTSUNNY   59  41  50 S15       29.98F
$$

ILZ067-068-072-073-078-083-087-091-292300-
SOUTHEAST ILLINOIS

CITY           SKY/WX    TMP DP  RH WIND       PRES   REMARKS
LAWRENCEVILLE  CLOUDY    56  31  38 SW16G24   29.98R
FLORA*         CLOUDY    55  40  57 SW20      29.97S
FAIRFIELD*     CLOUDY    56  40  53 SW17G23   29.97R
HARRISBURG*    CLOUDY    56  39  52 SW18      30.01R
ROBINSON*      LGT RAIN  53  35  50 SW16G22   29.99R
CARMI*         CLOUDY    58  32  37 S18G24    29.98R
$$

ABBREVIATIONS USED IN REMARKS
   TC - TEMPERATURE IN CELSIUS
  WCI - WIND CHILL INDEX
   HX - HEAT INDEX
  VSB - VISIBILITY
$$




USA.gov is the U.S. government's official web portal to all federal, state and local government web resources and services.